Location: Roanoke
(37.2710°N, 79.9420°W)
Time: 22:00:33
(UTC-05:00)

S-56A Canister/Altair - Pass Details

Date: 20 November 2019
Orbit: 633 x 2499 km, 38.9° (Epoch: 11 December)

Event Time Altitude Azimuth Distance (km) Brightness Sun altitude
Rises 15:35:47 0° 226° (SW) 5,875 14.0 14.5°
Reaches altitude 10° 15:40:07 10° 222° (SW) 4,664 13.9 13.8°
Maximum altitude 15:51:48 50° 152° (SSE) 2,014 9.9 12.0°
Drops below altitude 10° 15:59:44 10° 80° (E) 3,226 10.2 10.7°
Sets 16:02:12 0° 75° (ENE) 3,976 10.6 10.3°
